Weather History for KPRB - January, 2013

Change the Weather History Date:

Saturday, January 26, 2013

  Actual Average Record
Temperature  
Mean Temperature 56 °F 48 °F  
Max Temperature 64 °F 60 °F 75 °F (2011)
Min Temperature 47 °F 36 °F 20 °F (1949)
Degree Days  
Heating Degree Days 9 17  
Month to date heating degree days 500 467  
Since 1 July heating degree days 1439 1591  
Cooling Degree Days 0 0  
Month to date cooling degree days 0 0  
Year to date cooling degree days 0 0  
Growing Degree Days 5 (Base 50)    
Moisture  
Dew Point 49 °F    
Average Humidity 83    
Maximum Humidity 100    
Minimum Humidity 65    
Precipitation  
Precipitation T in 0.09 in 1.35 in (1983)
Month to date precipitation 0.69 2.30  
Year to date precipitation 0.69 2.30  
Since 1 July precipitation 3.90  
Sea Level Pressure  
Sea Level Pressure 29.99 in    
Wind  
Wind Speed 6 mph (NW)    
Max Wind Speed 20 mph    
Max Gust Speed 24 mph    
Visibility 6 miles    
Events      
T = Trace of Precipitation, MM = Missing Value Source: NWS Daily Summary

Daily Weather History Graph

Daily Weather History Graph

Search for Another Location

Airport or City:

Trip Planner

Search our weather history database for the weather conditions in past years. The results will help you decide how hot, cold, wet, or windy it might be!

Date:

Astronomy

Jan. 26, 2013 Rise Set
Actual Time 7:06 AM PST 5:24 PM PST
Civil Twilight 6:39 AM PST 5:51 PM PST
Nautical Twilight 6:08 AM PST 6:22 PM PST
Astronomical Twilight 5:38 AM PST 6:52 PM PST
Moon 5:22 PM PST (1/26) 6:28 AM PST (1/26)
Length of Visible Light 11h 12m
Length of Day
10h 17m
Full, 100% of the Moon is Illuminated
Jan 26
Full
Jan 26
Full
Feb 3
Last Quarter
Feb 9
New
Feb 17
First Quarter

Hourly Weather History & Observations

Time (PST) Temp. Dew Point Humidity Pressure Visibility Wind Dir Wind Speed Gust Speed Precip Events Conditions
12:53 AM 53.1 °F 50.0 °F 89% 30.01 in 5.0 mi Calm Calm - N/A   Overcast
1:50 AM 51.8 °F 50.0 °F 94% 30.02 in 5.0 mi Calm Calm - N/A   Mostly Cloudy
1:53 AM 52.0 °F 50.0 °F 93% 30.01 in 5.0 mi Calm Calm - N/A   Mostly Cloudy
2:53 AM 53.1 °F 51.1 °F 93% 30.01 in 6.0 mi Calm Calm - N/A   Overcast
3:53 AM 53.1 °F 52.0 °F 96% 29.99 in 4.0 mi Calm Calm - 0.00 in   Overcast
4:14 AM 51.8 °F 50.0 °F 94% 29.98 in 3.0 mi Calm Calm - N/A   Mostly Cloudy
4:22 AM 51.8 °F 50.0 °F 94% 29.99 in 2.5 mi Calm Calm - N/A   Mostly Cloudy
4:35 AM 51.8 °F 51.8 °F 100% 29.99 in 2.0 mi NNW 4.6 mph - N/A   Mostly Cloudy
4:53 AM 52.0 °F 51.1 °F 97% 29.99 in 2.0 mi Calm Calm - N/A   Overcast
5:53 AM 53.1 °F 52.0 °F 96% 29.98 in 3.0 mi Calm Calm - N/A   Overcast
6:21 AM 51.8 °F 51.8 °F 100% 29.99 in 2.0 mi Calm Calm - N/A   Overcast
6:39 AM 51.8 °F 51.8 °F 100% 29.99 in 3.0 mi Calm Calm - N/A   Overcast
6:53 AM 53.1 °F 52.0 °F 96% 29.99 in 3.0 mi Calm Calm - N/A   Overcast
7:07 AM 51.8 °F 51.8 °F 100% 29.99 in 2.5 mi Calm Calm - N/A   Overcast
7:16 AM 53.6 °F 51.8 °F 94% 29.99 in 3.0 mi Calm Calm - N/A   Overcast
7:36 AM 53.6 °F 51.8 °F 94% 29.99 in 2.0 mi Calm Calm - N/A   Overcast
7:43 AM 53.6 °F 51.8 °F 94% 29.99 in 1.8 mi Calm Calm - N/A   Overcast
7:53 AM 53.1 °F 52.0 °F 96% 29.99 in 2.0 mi Calm Calm - N/A   Overcast
8:20 AM 53.6 °F 51.8 °F 94% 30.00 in 1.8 mi NW 5.8 mph - N/A   Overcast
8:31 AM 53.6 °F 51.8 °F 94% 30.00 in 2.0 mi WNW 4.6 mph - N/A   Overcast
8:53 AM 54.0 °F 52.0 °F 93% 29.99 in 1.5 mi Calm Calm - N/A   Overcast
9:04 AM 53.6 °F 53.6 °F 100% 30.00 in 2.0 mi WNW 3.5 mph - N/A   Overcast
9:13 AM 53.6 °F 51.8 °F 94% 30.00 in 1.8 mi WNW 4.6 mph - N/A   Overcast
9:23 AM 53.6 °F 53.6 °F 100% 30.01 in 2.5 mi WNW 5.8 mph - N/A   Overcast
9:35 AM 53.6 °F 53.6 °F 100% 30.01 in 3.0 mi NW 3.5 mph - N/A   Overcast
9:53 AM 55.0 °F 54.0 °F 96% 30.01 in 3.0 mi North 4.6 mph - N/A   Overcast
10:53 AM 57.0 °F 54.0 °F 89% 30.01 in 7.0 mi NNW 5.8 mph - N/A   Overcast
11:07 AM 57.2 °F 53.6 °F 88% 30.01 in 10.0 mi NNW 6.9 mph - N/A   Mostly Cloudy
11:42 AM 59.0 °F 53.6 °F 82% 30.00 in 10.0 mi NNW 3.5 mph - N/A   Mostly Cloudy
11:49 AM 60.8 °F 53.6 °F 77% 29.99 in 10.0 mi NNE 4.6 mph - N/A   Mostly Cloudy
11:53 AM 60.1 °F 52.0 °F 75% 29.98 in 10.0 mi NNE 4.6 mph - N/A   Mostly Cloudy
12:09 PM 59.0 °F 51.8 °F 77% 29.98 in 10.0 mi NW 3.5 mph - N/A   Partly Cloudy
12:53 PM 61.0 °F 51.1 °F 70% 29.96 in 10.0 mi West 4.6 mph - N/A   Mostly Cloudy
1:53 PM 62.1 °F 50.0 °F 65% 29.94 in 10.0 mi NW 4.6 mph - N/A   Overcast
2:53 PM 62.1 °F 50.0 °F 65% 29.94 in 10.0 mi Calm Calm - N/A   Overcast
3:53 PM 62.1 °F 52.0 °F 70% 29.94 in 10.0 mi WNW 4.6 mph - N/A   Clear
4:53 PM 55.9 °F 48.9 °F 77% 29.94 in 10.0 mi NW 13.8 mph - N/A   Clear
5:53 PM 52.0 °F 42.1 °F 69% 29.96 in 10.0 mi NW 12.7 mph - N/A   Clear
6:53 PM 50.0 °F 39.9 °F 68% 29.99 in 10.0 mi NW 12.7 mph - N/A   Clear
7:27 PM 50.0 °F 41.0 °F 71% 30.00 in 10.0 mi NW 13.8 mph - N/A   Mostly Cloudy
7:53 PM 48.9 °F 41.0 °F 74% 30.00 in 10.0 mi NW 15.0 mph - N/A   Mostly Cloudy
8:04 PM 48.2 °F 41.0 °F 76% 30.00 in 10.0 mi NW 13.8 mph - N/A   Mostly Cloudy
8:53 PM 48.0 °F 39.9 °F 74% 30.01 in 10.0 mi NW 15.0 mph - N/A   Partly Cloudy
9:53 PM 48.0 °F 39.9 °F 74% 30.02 in 10.0 mi NW 11.5 mph - N/A   Overcast
10:53 PM 48.0 °F 39.0 °F 71% 30.03 in 10.0 mi NW 15.0 mph - N/A   Overcast
11:53 PM 46.9 °F 37.0 °F 68% 30.04 in 10.0 mi NW 15.0 mph 24.2 mph N/A   Overcast